User: anonymous   Login
Location: Unspecified
(0.0000°N, 0.0000°E)
Time: 08:47:58
(UTC+00:00)
Language:

STARLINK-3174 - Orbit

View from above orbital plane
View from above orbital plane
View from above satellite
View from above satellite

Ground track
Ground track

The orbit is defined by the following mean orbital elements,

1 51468U          26145.11892626 +.00000000 +00000-0 +17843-4 0 00007
2 51468  53.2133 295.9768 0001393  92.9760 267.1392 15.08832784    04
Epoch (UTC): 25 May 2026 02:51:15
Eccentricity: 0.0001393
inclination: 53.2133°
perigee height: 539 km
apogee height: 541 km
right ascension of ascending node: 295.9768°
argument of perigee: 92.9760°
revolutions per day: 15.08832784
mean anomaly at epoch: 267.1392°

The dashed part of the orbit path shows where the satellite is in the earth's shadow,  

DLR